Tracking 20623 objects as of 4-Apr-2020
HD Live streaming from Space Station
objects crossing your sky now

DMSP 5D-2 F11 DEB

Track DMSP 5D-2 F11 DEB now!
10-day predictions


NORAD ID: 28310
Int'l Code: 1991-082X
Perigee: 766.9 km
Apogee: 777.1 km
Inclination: 98.7 °
Period: 100.1 minutes
Semi major axis: 7143 km
RCS: 0.0074 m2 (small)
Launch date: November 28, 1991
Source: United States (US)
Launch site: AIR FORCE WESTERN TEST RANGE (AFWTR)

Note: This is SATELLITE DEBRIS
aabbcc
Your satellite tracking list
Your tracking list is empty




NASA's NSSDC Master Catalog

Two Line Element Set (TLE):
1 28310U 91082X   20094.09449757  .00000976  00000-0  33713-3 0  9996
2 28310  98.6508 142.0654 0007181 294.7610  96.2036 14.38074602830462
Source of the keplerian elements: AFSPC